Location: Leiter
(44.7178°N, 106.2687°W)
Time: 22:38:02
(UTC+00:00)

STARS - Pass Details

Date: 09 July 2022
Orbit: 620 x 637 km, 98.2° (Epoch: 16 August)

Event Time Altitude Azimuth Distance (km) Brightness Sun altitude
Rises 05:50:28 0° 13° (NNE) 2,924 ? -20.5°
Reaches altitude 10° 05:52:41 10° 14° (NNE) 2,010 ? -20.6°
Maximum altitude 05:57:03 85° 102° (ESE) 632 ? -20.9°
Enters shadow 05:58:00 55° 187° (S) 753 ? -20.9°
